Flag for Germany Weather past 2 weeks in Lörrach, Baden-Württemberg, Germany

Now
43 °F

Light rain. Broken clouds.


Feels Like: 36 °F
Forecast: 31 / 50 °F
Wind: 14 mph from Southwest

Location: Bale-Mulhouse

Current Time: Apr 2, 2015 at 9:17:20 AM

Latest Report: Apr 2, 2015 at 8:30 AM


Visibility: 6 mi

Pressure: 30.09 "Hg

Humidity: 81%

Dew point: 37 °F

Location of LörrachLocation

Historic Weather in Lörrach — Graph

°F

Lörrach temperature yesterday

Maximum temperature yesterday: 48 °F (at 12:00 AM)
Minimum temperature yesterday: 37 °F (at 11:30 AM)
Average temperature yesterday: 44 °F

Past Weeks' High & Low Weather Summary

 TemperatureHumidityPressure
High64 °F (Mar 18, 3:07 PM)100% (Mar 19, 3:30 AM)30.30 "Hg (Mar 19, 3:30 AM)
Low30 °F (Mar 24, 6:30 AM)39% (Mar 20, 2:30 PM)29.62 "Hg (Mar 25, 6:00 AM)
Average47 °F72%30.00 "Hg
* Reported Mar 18 8:30 AM — Apr 2 8:00 AM, Lörrach, Weather by CustomWeather, © 2015

Note: Actual official high and low records may vary slightly from our data, if they occured in-between our weather recording intervals... More about our weather records

Advertising

Lörrach weather history for previous 24 hours

 ConditionsComfort  
Time TempWeatherWind HumidityBarometerVisibility
8:00 AM
Thu, Apr 2
43 °FLight rain. Passing clouds.20 mph76%30.09 "Hg6 mi
7:30 AM45 °FLight rain. Partly cloudy.20 mph66%30.09 "HgN/A
7:00 AM45 °FPartly cloudy.16 mph66%30.09 "HgN/A
6:30 AM45 °FPartly cloudy.17 mph61%30.12 "HgN/A
6:00 AM45 °FMostly cloudy.16 mph61%30.12 "HgN/A
5:30 AM45 °FMostly cloudy.14 mph61%30.15 "HgN/A
5:00 AM45 °FPassing clouds.13 mph61%30.15 "HgN/A
4:41 AM45 °FPassing clouds.14 mph61%30.15 "HgN/A
4:00 AM45 °FMostly cloudy.12 mph61%30.18 "HgN/A
3:30 AM45 °FClear.9 mph57%30.21 "HgN/A
3:00 AM45 °FOvercast.12 mph61%30.21 "HgN/A
2:30 AM45 °FClear.12 mph57%30.24 "HgN/A
2:00 AM45 °FOvercast.8 mph61%30.24 "HgN/A
1:30 AM45 °FClear.9 mph61%30.24 "HgN/A
1:00 AM45 °FClear.12 mph57%30.27 "HgN/A
12:30 AM45 °FOvercast.9 mph61%30.27 "HgN/A
12:00 AM45 °FPartly cloudy.10 mph61%30.27 "HgN/A
11:30 PM
Wed, Apr 1
45 °FPartly cloudy.8 mph57%30.27 "HgN/A
11:00 PM45 °FClear.10 mph57%30.30 "Hg10 mi
10:30 PM43 °FClear.9 mph61%30.30 "Hg10 mi
10:00 PM43 °FClear.10 mph66%30.30 "Hg10 mi
9:30 PM43 °FClear.9 mph61%30.30 "Hg10 mi
9:00 PM45 °FClear.8 mph57%30.30 "Hg10 mi
8:30 PM45 °FPartly sunny.10 mph53%30.27 "HgN/A
8:00 PM45 °FBroken clouds.12 mph53%30.27 "HgN/A
7:30 PM45 °FBroken clouds.12 mph53%30.27 "HgN/A
7:00 PM45 °FScattered clouds.8 mph61%30.27 "HgN/A
6:30 PM46 °FBroken clouds.14 mph57%30.27 "HgN/A
6:00 PM46 °FBroken clouds.18 mph57%30.27 "HgN/A
5:30 PM48 °FBroken clouds.15 mph58%30.24 "HgN/A
5:00 PM48 °FScattered clouds.17 mph50%30.24 "HgN/A
4:30 PM46 °FBroken clouds.13 mph66%30.24 "HgN/A
4:00 PM48 °FScattered clouds.18 mph58%30.24 "HgN/A
3:30 PM46 °FScattered clouds.18 mph71%30.24 "HgN/A
3:00 PM41 °FSprinkles. Partly sunny.17 mph81%30.27 "HgN/A
2:30 PM45 °FSprinkles. Broken clouds.23 mph71%30.24 "HgN/A
2:00 PM46 °FScattered clouds.14 mph71%30.24 "HgN/A
1:30 PM43 °FBroken clouds.15 mph81%30.24 "HgN/A
1:00 PM43 °FSprinkles. Broken clouds.10 mph76%30.24 "HgN/A
12:30 PM45 °FBroken clouds.10 mph76%30.24 "HgN/A
12:00 PM43 °FScattered clouds.8 mph93%30.24 "HgN/A
11:30 AM37 °FRain showers. Broken clouds.13 mph87%30.24 "Hg4 mi
11:00 AM39 °FBroken clouds.10 mph93%30.21 "HgN/A
10:30 AM39 °FHail. Broken clouds.9 mph87%30.21 "HgN/A
10:00 AM43 °FSprinkles. Broken clouds.15 mph76%30.21 "HgN/A
9:30 AM43 °FSprinkles. Broken clouds.13 mph76%30.21 "HgN/A
9:00 AM43 °FBroken clouds.13 mph76%30.18 "HgN/A
Weather by CustomWeather, © 2015

See weather overviewHow to use our weather pages